Live Position
Loading 3D Globe...
About KNACKSAT
Group: 3 satellites
Description loading...
Upcoming Passes
Passes for default location (London). Set your location on the main map for personalized predictions.
Altitude History
Loading altitude history...
No altitude history available
Two-Line Element Set
1 43806U 18099BA 26104.85100529 .00002509 00000-0 13703-3 0 9994
2 43806 97.4061 153.8757 0007508 175.5755 184.5545 15.15197490402843
Epoch: Apr 14, 2026 •
Age: 4 hours
Current Status
Altitude 549.4 km
Velocity 7.59 km/s
Sub-Earth Point -76.04°S,
30.35°W
Launch Date Dec 3, 2018
Age 7.3 years
Type other
Technical Details
Classification Payload
Mass 1.00 kg
Dry Mass 1.00 kg
Total Mass 1.00 kg
Length 0.10 m
Diameter 0.10 m
Span 0.10 m
Shape Box
Manufacturer KMUTNB
Bus Type Cubesat 1U
Phase Status In Orbit
Owner/State KMUTNB/T
Most Searched
Loading...